User: anonymous   Login
Location: Stigler
(35.2540°N, 95.1230°W)
Time: 00:54:22
(UTC-06:00)
Language:

Cosmos 1805 - Orbit

View from above orbital plane
View from above orbital plane
View from above satellite
View from above satellite

Ground track
Ground track

The orbit data is extracted from the following two-line orbital elements,

1 17191U 86097A   18051.82148919 +.00000095 +00000-0 +37477-5 0  9993
2 17191 082.4754 144.5586 0003360 312.2787 047.8158 15.12043390700925
Epoch (UTC): 20 February 2018 19:42:56
Eccentricity: 0.0003360
inclination: 82.4754°
perigee height: 527 km
apogee height: 532 km
right ascension of ascending node: 144.5586°
argument of perigee: 312.2787°
revolutions per day: 15.12043390
mean anomaly at epoch: 47.8158°
orbit number at epoch: 70092

The dashed part of the orbit path shows where the satellite is in the earth's shadow,  

DLR